﻿測定場所 (Monitoring sites),日付 (Measurement date),時間 (Measurement time),線量率 最大値 (max) μGy/h,線量率 最小値 (min) μGy/h,線量率 平均値 (average) μGy/h,
八王子 (Hachioji),2018-03-25,23:01～24:00,0.0328,0.0294,0.0312,
八王子 (Hachioji),2018-03-25,22:01～23:00,0.0341,0.0295,0.0314,
八王子 (Hachioji),2018-03-25,21:01～22:00,0.0328,0.0290,0.0311,
八王子 (Hachioji),2018-03-25,20:01～21:00,0.0331,0.0288,0.0309,
八王子 (Hachioji),2018-03-25,19:01～20:00,0.0325,0.0286,0.0306,
八王子 (Hachioji),2018-03-25,18:01～19:00,0.0331,0.0288,0.0307,
八王子 (Hachioji),2018-03-25,17:01～18:00,0.0322,0.0286,0.0308,
八王子 (Hachioji),2018-03-25,16:01～17:00,0.0337,0.0291,0.0308,
八王子 (Hachioji),2018-03-25,15:01～16:00,0.0336,0.0282,0.0307,
八王子 (Hachioji),2018-03-25,14:01～15:00,0.0332,0.0292,0.0310,
八王子 (Hachioji),2018-03-25,13:01～14:00,0.0329,0.0291,0.0308,
八王子 (Hachioji),2018-03-25,12:01～13:00,0.0344,0.0287,0.0316,
八王子 (Hachioji),2018-03-25,11:01～12:00,0.0338,0.0290,0.0314,
八王子 (Hachioji),2018-03-25,10:01～11:00,0.0336,0.0292,0.0315,
八王子 (Hachioji),2018-03-25,09:01～10:00,0.0342,0.0300,0.0320,
八王子 (Hachioji),2018-03-25,08:01～09:00,0.0334,0.0293,0.0317,
八王子 (Hachioji),2018-03-25,07:01～08:00,0.0343,0.0304,0.0320,
八王子 (Hachioji),2018-03-25,06:01～07:00,0.0338,0.0298,0.0316,
八王子 (Hachioji),2018-03-25,05:01～06:00,0.0333,0.0292,0.0312,
八王子 (Hachioji),2018-03-25,04:01～05:00,0.0327,0.0290,0.0308,
八王子 (Hachioji),2018-03-25,03:01～04:00,0.0334,0.0288,0.0309,
八王子 (Hachioji),2018-03-25,02:01～03:00,0.0334,0.0290,0.0310,
八王子 (Hachioji),2018-03-25,01:01～02:00,0.0332,0.0289,0.0311,
八王子 (Hachioji),2018-03-25,00:01～01:00,0.0328,0.0289,0.0309,
八王子 (Hachioji),2018-03-24,23:01～24:00,0.0327,0.0287,0.0309,
八王子 (Hachioji),2018-03-24,22:01～23:00,0.0327,0.0285,0.0305,
八王子 (Hachioji),2018-03-24,21:01～22:00,0.0323,0.0289,0.0305,
八王子 (Hachioji),2018-03-24,20:01～21:00,0.0320,0.0281,0.0303,
八王子 (Hachioji),2018-03-24,19:01～20:00,0.0320,0.0279,0.0301,
八王子 (Hachioji),2018-03-24,18:01～19:00,0.0325,0.0279,0.0302,
八王子 (Hachioji),2018-03-24,17:01～18:00,0.0321,0.0286,0.0302,
八王子 (Hachioji),2018-03-24,16:01～17:00,0.0317,0.0286,0.0302,
八王子 (Hachioji),2018-03-24,15:01～16:00,0.0320,0.0287,0.0302,
八王子 (Hachioji),2018-03-24,14:01～15:00,0.0315,0.0290,0.0303,
八王子 (Hachioji),2018-03-24,13:01～14:00,0.0337,0.0277,0.0304,
八王子 (Hachioji),2018-03-24,12:01～13:00,0.0323,0.0283,0.0305,
八王子 (Hachioji),2018-03-24,11:01～12:00,0.0324,0.0279,0.0304,
八王子 (Hachioji),2018-03-24,10:01～11:00,0.0327,0.0290,0.0304,
八王子 (Hachioji),2018-03-24,09:01～10:00,0.0319,0.0283,0.0303,
八王子 (Hachioji),2018-03-24,08:01～09:00,0.0339,0.0288,0.0309,
八王子 (Hachioji),2018-03-24,07:01～08:00,0.0335,0.0291,0.0311,
八王子 (Hachioji),2018-03-24,06:01～07:00,0.0331,0.0287,0.0307,
八王子 (Hachioji),2018-03-24,05:01～06:00,0.0327,0.0285,0.0305,
八王子 (Hachioji),2018-03-24,04:01～05:00,0.0320,0.0282,0.0301,
八王子 (Hachioji),2018-03-24,03:01～04:00,0.0332,0.0283,0.0304,
八王子 (Hachioji),2018-03-24,02:01～03:00,0.0327,0.0284,0.0307,
八王子 (Hachioji),2018-03-24,01:01～02:00,0.0348,0.0303,0.0324,
八王子 (Hachioji),2018-03-24,00:01～01:00,0.0358,0.0300,0.0336,
八王子 (Hachioji),2018-03-23,23:01～24:00,0.0407,0.0340,0.0362,
八王子 (Hachioji),2018-03-23,22:01～23:00,0.0383,0.0327,0.0357,
八王子 (Hachioji),2018-03-23,21:01～22:00,0.0361,0.0291,0.0323,
八王子 (Hachioji),2018-03-23,20:01～21:00,0.0321,0.0279,0.0305,
八王子 (Hachioji),2018-03-23,19:01～20:00,0.0329,0.0283,0.0306,
八王子 (Hachioji),2018-03-23,18:01～19:00,0.0352,0.0296,0.0313,
八王子 (Hachioji),2018-03-23,17:01～18:00,0.0337,0.0293,0.0311,
八王子 (Hachioji),2018-03-23,16:01～17:00,0.0326,0.0287,0.0307,
八王子 (Hachioji),2018-03-23,15:01～16:00,0.0328,0.0290,0.0307,
八王子 (Hachioji),2018-03-23,14:01～15:00,0.0321,0.0282,0.0305,
八王子 (Hachioji),2018-03-23,13:01～14:00,0.0330,0.0287,0.0308,
八王子 (Hachioji),2018-03-23,12:01～13:00,0.0332,0.0276,0.0307,
八王子 (Hachioji),2018-03-23,11:01～12:00,0.0327,0.0287,0.0310,
八王子 (Hachioji),2018-03-23,10:01～11:00,0.0332,0.0293,0.0312,
八王子 (Hachioji),2018-03-23,09:01～10:00,0.0344,0.0300,0.0317,
八王子 (Hachioji),2018-03-23,08:01～09:00,0.0347,0.0306,0.0325,
八王子 (Hachioji),2018-03-23,07:01～08:00,0.0346,0.0301,0.0320,
八王子 (Hachioji),2018-03-23,06:01～07:00,0.0330,0.0292,0.0311,
八王子 (Hachioji),2018-03-23,05:01～06:00,0.0342,0.0298,0.0318,
八王子 (Hachioji),2018-03-23,04:01～05:00,0.0360,0.0307,0.0331,
八王子 (Hachioji),2018-03-23,03:01～04:00,0.0333,0.0286,0.0313,
八王子 (Hachioji),2018-03-23,02:01～03:00,0.0334,0.0291,0.0310,
八王子 (Hachioji),2018-03-23,01:01～02:00,0.0333,0.0291,0.0310,
八王子 (Hachioji),2018-03-23,00:01～01:00,0.0327,0.0292,0.0311,
八王子 (Hachioji),2018-03-22,23:01～24:00,0.0332,0.0294,0.0314,
八王子 (Hachioji),2018-03-22,22:01～23:00,0.0325,0.0288,0.0308,
八王子 (Hachioji),2018-03-22,21:01～22:00,0.0327,0.0282,0.0307,
八王子 (Hachioji),2018-03-22,20:01～21:00,0.0330,0.0286,0.0308,
八王子 (Hachioji),2018-03-22,19:01～20:00,0.0335,0.0288,0.0308,
八王子 (Hachioji),2018-03-22,18:01～19:00,0.0321,0.0286,0.0303,
八王子 (Hachioji),2018-03-22,17:01～18:00,0.0328,0.0289,0.0306,
八王子 (Hachioji),2018-03-22,16:01～17:00,0.0327,0.0282,0.0305,
八王子 (Hachioji),2018-03-22,15:01～16:00,0.0322,0.0283,0.0306,
八王子 (Hachioji),2018-03-22,14:01～15:00,0.0324,0.0284,0.0306,
八王子 (Hachioji),2018-03-22,13:01～14:00,0.0325,0.0285,0.0309,
八王子 (Hachioji),2018-03-22,12:01～13:00,0.0335,0.0295,0.0317,
八王子 (Hachioji),2018-03-22,11:01～12:00,0.0356,0.0306,0.0330,
八王子 (Hachioji),2018-03-22,10:01～11:00,0.0356,0.0314,0.0332,
八王子 (Hachioji),2018-03-22,09:01～10:00,0.0375,0.0330,0.0356,
八王子 (Hachioji),2018-03-22,08:01～09:00,0.0389,0.0323,0.0355,
八王子 (Hachioji),2018-03-22,07:01～08:00,0.0341,0.0299,0.0319,
八王子 (Hachioji),2018-03-22,06:01～07:00,0.0404,0.0307,0.0346,
八王子 (Hachioji),2018-03-22,05:01～06:00,0.0468,0.0361,0.0422,
八王子 (Hachioji),2018-03-22,04:01～05:00,0.0490,0.0420,0.0461,
八王子 (Hachioji),2018-03-22,03:01～04:00,0.0498,0.0427,0.0472,
八王子 (Hachioji),2018-03-22,02:01～03:00,0.0498,0.0421,0.0457,
八王子 (Hachioji),2018-03-22,01:01～02:00,0.0472,0.0402,0.0434,
八王子 (Hachioji),2018-03-22,00:01～01:00,0.0455,0.0369,0.0413,
八王子 (Hachioji),2018-03-21,23:01～24:00,0.0467,0.0393,0.0434,
八王子 (Hachioji),2018-03-21,22:01～23:00,0.0468,0.0387,0.0433,
八王子 (Hachioji),2018-03-21,21:01～22:00,0.0486,0.0405,0.0438,
八王子 (Hachioji),2018-03-21,20:01～21:00,0.0483,0.0414,0.0449,
八王子 (Hachioji),2018-03-21,19:01～20:00,0.0481,0.0403,0.0442,
八王子 (Hachioji),2018-03-21,18:01～19:00,0.0485,0.0368,0.0419,
八王子 (Hachioji),2018-03-21,17:01～18:00,0.0454,0.0358,0.0404,
八王子 (Hachioji),2018-03-21,16:01～17:00,0.0425,0.0363,0.0387,
八王子 (Hachioji),2018-03-21,15:01～16:00,0.0409,0.0352,0.0374,
八王子 (Hachioji),2018-03-21,14:01～15:00,0.0426,0.0366,0.0391,
八王子 (Hachioji),2018-03-21,13:01～14:00,0.0454,0.0373,0.0418,
八王子 (Hachioji),2018-03-21,12:01～13:00,0.0481,0.0409,0.0442,
八王子 (Hachioji),2018-03-21,11:01～12:00,0.0493,0.0430,0.0453,
八王子 (Hachioji),2018-03-21,10:01～11:00,0.0471,0.0405,0.0438,
八王子 (Hachioji),2018-03-21,09:01～10:00,0.0480,0.0407,0.0445,
八王子 (Hachioji),2018-03-21,08:01～09:00,0.0482,0.0400,0.0443,
八王子 (Hachioji),2018-03-21,07:01～08:00,0.0454,0.0353,0.0388,
八王子 (Hachioji),2018-03-21,06:01～07:00,0.0390,0.0300,0.0344,
八王子 (Hachioji),2018-03-21,05:01～06:00,0.0344,0.0291,0.0312,
八王子 (Hachioji),2018-03-21,04:01～05:00,0.0330,0.0281,0.0310,
八王子 (Hachioji),2018-03-21,03:01～04:00,0.0329,0.0293,0.0307,
八王子 (Hachioji),2018-03-21,02:01～03:00,0.0339,0.0288,0.0308,
八王子 (Hachioji),2018-03-21,01:01～02:00,0.0331,0.0291,0.0308,
八王子 (Hachioji),2018-03-21,00:01～01:00,0.0331,0.0293,0.0309,
八王子 (Hachioji),2018-03-20,23:01～24:00,0.0324,0.0285,0.0306,
八王子 (Hachioji),2018-03-20,22:01～23:00,0.0331,0.0282,0.0307,
八王子 (Hachioji),2018-03-20,21:01～22:00,0.0327,0.0286,0.0307,
八王子 (Hachioji),2018-03-20,20:01～21:00,0.0327,0.0284,0.0307,
八王子 (Hachioji),2018-03-20,19:01～20:00,0.0322,0.0289,0.0305,
八王子 (Hachioji),2018-03-20,18:01～19:00,0.0327,0.0286,0.0307,
八王子 (Hachioji),2018-03-20,17:01～18:00,0.0337,0.0286,0.0309,
八王子 (Hachioji),2018-03-20,16:01～17:00,0.0338,0.0295,0.0319,
八王子 (Hachioji),2018-03-20,15:01～16:00,0.0360,0.0292,0.0328,
八王子 (Hachioji),2018-03-20,14:01～15:00,0.0372,0.0315,0.0340,
八王子 (Hachioji),2018-03-20,13:01～14:00,0.0418,0.0347,0.0372,
八王子 (Hachioji),2018-03-20,12:01～13:00,0.0447,0.0365,0.0401,
八王子 (Hachioji),2018-03-20,11:01～12:00,0.0435,0.0360,0.0392,
八王子 (Hachioji),2018-03-20,10:01～11:00,0.0481,0.0374,0.0425,
八王子 (Hachioji),2018-03-20,09:01～10:00,0.0483,0.0421,0.0459,
八王子 (Hachioji),2018-03-20,08:01～09:00,0.0469,0.0364,0.0426,
八王子 (Hachioji),2018-03-20,07:01～08:00,0.0422,0.0359,0.0387,
八王子 (Hachioji),2018-03-20,06:01～07:00,0.0425,0.0363,0.0392,
八王子 (Hachioji),2018-03-20,05:01～06:00,0.0453,0.0365,0.0412,
八王子 (Hachioji),2018-03-20,04:01～05:00,0.0410,0.0341,0.0361,
八王子 (Hachioji),2018-03-20,03:01～04:00,0.0438,0.0358,0.0395,
八王子 (Hachioji),2018-03-20,02:01～03:00,0.0459,0.0360,0.0398,
八王子 (Hachioji),2018-03-20,01:01～02:00,0.0399,0.0321,0.0351,
八王子 (Hachioji),2018-03-20,00:01～01:00,0.0385,0.0321,0.0351,
八王子 (Hachioji),2018-03-19,23:01～24:00,0.0417,0.0352,0.0378,
八王子 (Hachioji),2018-03-19,22:01～23:00,0.0426,0.0354,0.0383,
八王子 (Hachioji),2018-03-19,21:01～22:00,0.0420,0.0361,0.0387,
八王子 (Hachioji),2018-03-19,20:01～21:00,0.0403,0.0346,0.0374,
八王子 (Hachioji),2018-03-19,19:01～20:00,0.0383,0.0307,0.0353,
八王子 (Hachioji),2018-03-19,18:01～19:00,0.0352,0.0304,0.0325,
八王子 (Hachioji),2018-03-19,17:01～18:00,0.0343,0.0296,0.0321,
八王子 (Hachioji),2018-03-19,16:01～17:00,0.0341,0.0309,0.0322,
八王子 (Hachioji),2018-03-19,15:01～16:00,0.0342,0.0297,0.0322,
八王子 (Hachioji),2018-03-19,14:01～15:00,0.0343,0.0304,0.0325,
八王子 (Hachioji),2018-03-19,13:01～14:00,0.0350,0.0302,0.0325,
八王子 (Hachioji),2018-03-19,12:01～13:00,0.0347,0.0308,0.0326,
八王子 (Hachioji),2018-03-19,11:01～12:00,0.0353,0.0304,0.0329,
八王子 (Hachioji),2018-03-19,10:01～11:00,0.0357,0.0313,0.0335,
八王子 (Hachioji),2018-03-19,09:01～10:00,0.0361,0.0319,0.0340,
八王子 (Hachioji),2018-03-19,08:01～09:00,0.0355,0.0294,0.0332,
八王子 (Hachioji),2018-03-19,07:01～08:00,0.0345,0.0297,0.0322,
八王子 (Hachioji),2018-03-19,06:01～07:00,0.0337,0.0306,0.0320,
八王子 (Hachioji),2018-03-19,05:01～06:00,0.0342,0.0304,0.0320,
八王子 (Hachioji),2018-03-19,04:01～05:00,0.0346,0.0297,0.0319,
八王子 (Hachioji),2018-03-19,03:01～04:00,0.0347,0.0306,0.0321,
八王子 (Hachioji),2018-03-19,02:01～03:00,0.0344,0.0305,0.0320,
八王子 (Hachioji),2018-03-19,01:01～02:00,0.0342,0.0306,0.0320,
八王子 (Hachioji),2018-03-19,00:01～01:00,0.0336,0.0297,0.0317,
